sat.trackr.live / text

‹ back to catalog

INSAT-3D

NORAD 39216 · 2013-038B

PAYLOAD ACTIVE UNKNOWN

§ Identity

Operator
Country
IND
Launch date
2013-07-25
Launch site
FRGUI
Launch vehicle
Mass (kg)
RCS (m²)
22.16

Purposes: comms, earth_obs

External: N2YO · Heavens-Above · Gunter

§ Orbital elements

Epoch: 2026-09-09T23:13:20.449056Z

Period
1,436.07 min
Inclination
2.1387°
Eccentricity
0.0001332
Mean motion
1.00273735 rev/d
Perigee alt
35,780.4 km
Apogee alt
35,791.7 km
Semi-major
42,164.2 km
B*
0.0000e+0
RAAN
81.3788°
Arg perigee
115.0879°
Mean anomaly
270.3874°
Rev number
4,793

§ Raw data

INSAT-3D1 39216U 13038B   26252.96759779 -.00000358  00000+0  00000+0 0  99972 39216   2.1387  81.3788 0001332 115.0879 270.3874  1.00273735 47931

JSON: /api/v1/satellites/39216 · /tle

For live sub-satellite position, see the globe view (requires WebGL).

§ Visibility from observer

Set your observer location to see the next 7 days of passes ≥ 10°. The values pass through the URL so the page stays shareable.

No JS? Fill the form by hand. The geolocation button needs JavaScript.